Regional Weather Roundup
Issued by NWS

Home | Current Version | Previous Version | Text Only | Print | Product List | Glossary On
Versions: 1 2 3 4 5 6 7 8 9 10 11 12 13 14 15 16 17 18 19 20 21 22 23 24 25 26 27 28 29 30 31 32 33 34 35 36 37 38 39 40 41 42 43 44 45 46 47 48 49 50
000
ASUS45 KSLC 051010
RWRUT

UTAH REGIONAL WEATHER ROUNDUP
NATIONAL WEATHER SERVICE SALT LAKE CITY UT
300 AM MST THU MAR 05 2015

UTZ001>011-023>025-051100-

NORTHERN UTAH

CITY           SKY/WX    TMP DP  RH WIND       PRES   REMARKS
BRIGHAM CITY   CLEAR     27  18  69 W5        30.38R WCI  22
HILL AFB       CLEAR     24  12  61 E14       30.35S WCI  12
LOGAN          CLEAR     22  16  78 SE3       30.36R
OGDEN          CLEAR     25  15  66 S10       30.35S WCI  15
PROVO AIRPORT  PTCLDY    25  18  74 SE7       30.39S WCI  17
SALT LAKE CITY CLEAR     29  17  61 S9        30.36S WCI  20
VERNAL         PTCLDY    18  10  71 NW5       30.32R WCI  11
WENDOVER       CLEAR     23  12  63 CALM      30.35S
HEBER CITY     PTCLDY    14  10  85 CALM      30.37S
WEST JORDAN    CLEAR     27  19  74 S8        30.37S WCI  18

$$

UTZ012>022-026-027-051100-

SOUTHERN/CENTRAL UTAH

CITY           SKY/WX    TMP DP  RH WIND       PRES   REMARKS
BLANDING       PTCLDY    21  12  68 NE6       30.38S WCI  14
BRYCE CANYON   PTCLDY    -5  -9  83 W12       30.32S WCI -23
CEDAR CITY     PTCLDY    14   8  77 NE3       30.33R
DELTA          CLEAR     24  21  86 NE7       30.37S WCI  16
HANKSVILLE     CLEAR     25  23  93 CALM      30.36S
MILFORD        CLEAR     21  17  84 S3        30.36R
MOAB/CYNLANDS  CLEAR     22  18  85 CALM      30.32S
PRICE          CLEAR     22  10  60 S3        30.29S
ST GEORGE      MOSUNNY   36  25  64 S3        30.37S
KANAB          CLEAR     28  16  59 NW13      30.37R WCI  18

$$

REGIONAL REPORTS     COLORADO/ARIZONA

CITY           SKY/WX    TMP DP  RH WIND       PRES   REMARKS
CRAIG, CO      PTCLDY     2  -2  83 SW3       30.32S
GRAND JUNCTION CLEAR     23  11  60 E8        30.35R WCI  14
RIFLE          MOCLDY    19  10  68 E6        30.38S WCI  11
MONTROSE       PTCLDY    21  11  65 SE8       30.37S WCI  11
CORTEZ         CLEAR     18  12  77 NE5       30.32S WCI  11
PAGE, AZ       CLEAR     34  21  59 CALM      30.32S
GRAND CANYON   PTCLDY     6   3  87 E3        30.31R
KINGMAN        CLEAR     34  26  72 E9        30.28S WCI  27
FLAGSTAFF      PTCLDY    22  10  60 E5        30.28R WCI  16

$$

REGIONAL REPORTS    NEVADA/IDAHO/WYOMING

CITY           SKY/WX    TMP DP  RH WIND       PRES   REMARKS
LAS VEGAS, NV  CLEAR     45  28  51 SW7       30.27S
ELY            CLEAR     15  10  80 S14       30.34R WCI   0
ELKO           CLEAR     19  12  74 E5        30.34R WCI  12
POCATELLO, ID  CLEAR     22  13  68 CALM      30.33R
EVANSTON, WY   PTCLDY    12   6  77 SW10      30.27S WCI  -1
ROCK SPRINGS   PTCLDY    16   6  65 W15       30.20F WCI   1

$$



USA.gov is the U.S. government's official web portal to all federal, state and local government web resources and services.